NAX2741 EGKK-EKCH

Flight info

Callsign NAX2741
Flight time 1h 35m
Altitude 37000
Route FRANE M604 PAAVO Q295 SOMVA DCT MAVAS DCT ANDIK N873 JUIST DCT ROCZO DCT DOSUR DCT TALSA P729 TUDLO
Aircraft B38M/M-SDE1FGHILORVWXY/HB1

Departure

Time 2026-04-22 19:39
Airport London Gatwick Airport (EGKK)

Arrival

Time 2026-04-22 21:14
Airport Copenhagen Kastrup Airport (EKCH)
Time Latitude Longitude Altitude Speed Heading
2026-04-22 18:51 51.15504 -0.16782 213 ft 0 kts 347°
2026-04-22 19:19 51.15501 -0.16781 207 ft 3 kts 348°
2026-04-22 19:19 51.15482 -0.16775 213 ft 4 kts 344°
2026-04-22 19:20 51.15458 -0.16757 218 ft 4 kts 320°
2026-04-22 19:20 51.15442 -0.16726 213 ft 3 kts 296°
2026-04-22 19:20 51.15441 -0.16722 212 ft 1 kts 296°
2026-04-22 19:25 51.15441 -0.16724 212 ft 1 kts 296°
2026-04-22 19:26 51.15449 -0.16750 215 ft 5 kts 292°
2026-04-22 19:26 51.15448 -0.16835 215 ft 11 kts 257°
2026-04-22 19:26 51.15424 -0.17008 207 ft 20 kts 258°
2026-04-22 19:26 51.15396 -0.17161 214 ft 0 kts 242°
2026-04-22 19:28 51.15390 -0.17181 209 ft 5 kts 249°
2026-04-22 19:28 51.15372 -0.17274 214 ft 12 kts 253°
2026-04-22 19:28 51.15328 -0.17372 211 ft 11 kts 202°
2026-04-22 19:28 51.15292 -0.17511 207 ft 18 kts 262°
2026-04-22 19:29 51.15260 -0.17744 213 ft 24 kts 257°
2026-04-22 19:29 51.15230 -0.17966 216 ft 9 kts 258°
2026-04-22 19:29 51.15213 -0.18091 213 ft 14 kts 258°
2026-04-22 19:29 51.15190 -0.18260 207 ft 18 kts 258°
2026-04-22 19:30 51.15176 -0.18400 213 ft 20 kts 258°
2026-04-22 19:30 51.15133 -0.18708 207 ft 24 kts 258°
2026-04-22 19:30 51.15098 -0.18970 214 ft 24 kts 258°
2026-04-22 19:30 51.15065 -0.19218 207 ft 21 kts 258°
2026-04-22 19:31 51.15033 -0.19447 208 ft 21 kts 257°
2026-04-22 19:31 51.15004 -0.19655 211 ft 17 kts 257°
2026-04-22 19:31 51.14977 -0.19851 212 ft 20 kts 257°
2026-04-22 19:31 51.14945 -0.20078 212 ft 22 kts 258°
2026-04-22 19:32 51.14911 -0.20326 212 ft 23 kts 257°
2026-04-22 19:32 51.14878 -0.20566 209 ft 23 kts 257°
2026-04-22 19:32 51.14844 -0.20806 207 ft 22 kts 258°
2026-04-22 19:32 51.14818 -0.21000 207 ft 15 kts 257°
2026-04-22 19:33 51.14803 -0.21103 211 ft 6 kts 257°
2026-04-22 19:33 51.14786 -0.21173 213 ft 8 kts 247°
2026-04-22 19:33 51.14772 -0.21265 207 ft 8 kts 259°
2026-04-22 19:33 51.14760 -0.21350 207 ft 8 kts 257°
2026-04-22 19:34 51.14732 -0.21404 214 ft 4 kts 198°
2026-04-22 19:34 51.14731 -0.21404 214 ft 0 kts 192°
2026-04-22 19:35 51.14726 -0.21406 218 ft 2 kts 187°
2026-04-22 19:35 51.14695 -0.21399 213 ft 7 kts 167°
2026-04-22 19:35 51.14661 -0.21359 217 ft 11 kts 136°
2026-04-22 19:35 51.14628 -0.21333 209 ft 0 kts 165°
2026-04-22 19:37 51.14604 -0.21325 211 ft 7 kts 168°
2026-04-22 19:38 51.14539 -0.21271 208 ft 14 kts 135°
2026-04-22 19:38 51.14521 -0.21173 211 ft 0 kts 78°
2026-04-22 19:38 51.14523 -0.21157 208 ft 4 kts 78°
2026-04-22 19:38 51.14541 -0.21026 218 ft 46 kts 77°
2026-04-22 19:39 51.14676 -0.20056 210 ft 130 kts 77°
2026-04-22 19:39 51.14909 -0.18368 423 ft 160 kts 77°
2026-04-22 19:39 51.15116 -0.16780 650 ft 139 kts 78°
2026-04-22 19:39 51.15322 -0.15151 1166 ft 157 kts 78°
2026-04-22 19:40 51.15559 -0.13414 2022 ft 161 kts 79°
2026-04-22 19:40 51.15824 -0.11573 2610 ft 181 kts 80°
2026-04-22 19:40 51.16115 -0.09500 3093 ft 204 kts 80°
2026-04-22 19:40 51.16443 -0.07160 3695 ft 220 kts 81°
2026-04-22 19:41 51.16774 -0.04779 4663 ft 226 kts 81°
2026-04-22 19:41 51.16886 -0.02261 4806 ft 228 kts 94°
2026-04-22 19:41 51.16835 0.00237 4991 ft 231 kts 94°
2026-04-22 19:41 51.16786 0.02828 4980 ft 232 kts 94°
2026-04-22 19:42 51.16736 0.05453 5033 ft 245 kts 94°
2026-04-22 19:42 51.16685 0.08193 5064 ft 249 kts 94°
2026-04-22 19:42 51.16635 0.10956 5096 ft 251 kts 94°
2026-04-22 19:42 51.16582 0.13741 5122 ft 252 kts 94°
2026-04-22 19:43 51.16573 0.19253 5148 ft 251 kts 92°
2026-04-22 19:43 51.16580 0.22045 5165 ft 252 kts 92°
2026-04-22 19:43 51.16583 0.24832 5171 ft 252 kts 92°
2026-04-22 19:44 51.16583 0.27626 5189 ft 252 kts 92°
2026-04-22 19:44 51.16586 0.30416 5192 ft 251 kts 92°
2026-04-22 19:44 51.16588 0.33206 5188 ft 252 kts 92°
2026-04-22 19:44 51.16591 0.36001 5185 ft 252 kts 92°
2026-04-22 19:45 51.16593 0.38791 5187 ft 252 kts 92°
2026-04-22 19:45 51.16594 0.41574 5188 ft 251 kts 92°
2026-04-22 19:45 51.16594 0.44355 5186 ft 251 kts 92°
2026-04-22 19:45 51.16595 0.47146 5186 ft 252 kts 92°
2026-04-22 19:46 51.16597 0.49897 5190 ft 252 kts 90°
2026-04-22 19:46 51.17029 0.52606 5161 ft 256 kts 63°
2026-04-22 19:46 51.18240 0.54703 5182 ft 264 kts 37°
2026-04-22 19:46 51.19957 0.55808 5198 ft 270 kts 17°
2026-04-22 19:47 51.21801 0.56499 5182 ft 272 kts 17°
2026-04-22 19:47 51.23640 0.57194 5178 ft 272 kts 17°
2026-04-22 19:47 51.24866 0.57656 5168 ft 272 kts 17°
2026-04-22 19:47 51.27327 0.58577 5152 ft 271 kts 17°
2026-04-22 19:48 51.29167 0.59266 5151 ft 272 kts 17°
2026-04-22 19:48 51.31024 0.59959 5239 ft 276 kts 17°
2026-04-22 19:48 51.32889 0.60659 5739 ft 276 kts 17°
2026-04-22 19:48 51.34740 0.61351 5958 ft 277 kts 17°
2026-04-22 19:49 51.36612 0.62053 6003 ft 277 kts 17°
2026-04-22 19:49 51.38496 0.62761 6027 ft 278 kts 17°
2026-04-22 19:49 51.40388 0.63477 6675 ft 279 kts 17°
2026-04-22 19:49 51.42269 0.64188 7741 ft 279 kts 17°
2026-04-22 19:50 51.43561 0.64679 8341 ft 284 kts 17°
2026-04-22 19:50 51.45481 0.65407 9227 ft 289 kts 17°
2026-04-22 19:50 51.47460 0.66157 10139 ft 294 kts 16°
2026-04-22 19:50 51.49475 0.66923 10873 ft 305 kts 16°
2026-04-22 19:51 51.51610 0.67736 11308 ft 325 kts 16°
2026-04-22 19:51 51.53875 0.68596 11687 ft 344 kts 16°
2026-04-22 19:51 51.56257 0.69503 12208 ft 358 kts 16°
2026-04-22 19:51 51.58710 0.70434 12963 ft 363 kts 16°
2026-04-22 19:52 51.61189 0.71377 13796 ft 368 kts 16°
2026-04-22 19:52 51.63693 0.72330 14529 ft 372 kts 16°
2026-04-22 19:52 51.66233 0.73298 15287 ft 375 kts 16°
2026-04-22 19:52 51.68785 0.74271 16047 ft 378 kts 16°
2026-04-22 19:53 51.71336 0.75245 16773 ft 382 kts 16°
2026-04-22 19:53 51.73932 0.76239 17508 ft 384 kts 16°
2026-04-22 19:53 51.76552 0.77244 18233 ft 388 kts 16°
2026-04-22 19:53 51.79188 0.78256 18903 ft 391 kts 15°
2026-04-22 19:54 51.81752 0.79657 19545 ft 388 kts 30°
2026-04-22 19:54 51.83981 0.82108 20164 ft 388 kts 39°
2026-04-22 19:54 51.85947 0.85106 20767 ft 389 kts 54°
2026-04-22 19:54 51.87226 0.88948 21392 ft 390 kts 67°
2026-04-22 19:55 51.88285 0.93017 21914 ft 395 kts 66°
2026-04-22 19:55 51.89359 0.97126 22493 ft 397 kts 66°
2026-04-22 19:55 51.90431 1.01276 23055 ft 401 kts 67°
2026-04-22 19:55 51.91505 1.05461 23608 ft 404 kts 66°
2026-04-22 19:56 51.92573 1.09640 24100 ft 408 kts 66°
2026-04-22 19:56 51.93662 1.13910 24494 ft 412 kts 66°
2026-04-22 19:56 51.94757 1.18215 24952 ft 414 kts 66°
2026-04-22 19:56 51.95862 1.22562 25307 ft 419 kts 65°
2026-04-22 19:57 51.96975 1.26954 25750 ft 422 kts 65°
2026-04-22 19:57 51.98091 1.31365 26146 ft 425 kts 65°
2026-04-22 19:57 51.99218 1.35826 26574 ft 428 kts 65°
2026-04-22 19:57 52.00351 1.40324 26980 ft 431 kts 64°
2026-04-22 19:58 52.01473 1.44786 27374 ft 434 kts 64°
2026-04-22 19:58 52.02614 1.49333 27808 ft 436 kts 64°
2026-04-22 19:58 52.03756 1.53894 28298 ft 436 kts 64°
2026-04-22 19:58 52.04900 1.58472 28655 ft 440 kts 64°
2026-04-22 19:59 52.06054 1.63098 29013 ft 442 kts 64°
2026-04-22 20:00 52.13071 1.91441 31077 ft 457 kts 64°
2026-04-22 20:00 52.14253 1.96254 31481 ft 456 kts 64°
2026-04-22 20:01 52.15414 2.00987 31919 ft 456 kts 65°
2026-04-22 20:01 52.16599 2.05832 32342 ft 455 kts 64°
2026-04-22 20:01 52.17767 2.10614 32754 ft 454 kts 64°
2026-04-22 20:01 52.18933 2.15403 33162 ft 453 kts 64°
2026-04-22 20:02 52.20079 2.20115 33554 ft 453 kts 64°
2026-04-22 20:02 52.21240 2.24903 33948 ft 452 kts 64°
2026-04-22 20:02 52.22397 2.29685 34343 ft 452 kts 64°
2026-04-22 20:02 52.23545 2.34439 34681 ft 451 kts 64°
2026-04-22 20:03 52.24693 2.39206 34984 ft 451 kts 64°
2026-04-22 20:03 52.25839 2.43975 35300 ft 451 kts 65°
2026-04-22 20:03 52.26984 2.48746 35635 ft 450 kts 65°
2026-04-22 20:03 52.28125 2.53509 36028 ft 448 kts 66°
2026-04-22 20:04 52.29246 2.58190 36363 ft 447 kts 66°
2026-04-22 20:04 52.30385 2.62975 36658 ft 447 kts 67°
2026-04-22 20:04 52.31253 2.67792 36934 ft 448 kts 72°
2026-04-22 20:04 52.32093 2.72685 37213 ft 447 kts 71°
2026-04-22 20:05 52.32955 2.77589 37396 ft 448 kts 71°
2026-04-22 20:05 52.34689 2.87350 37407 ft 445 kts 71°
2026-04-22 20:06 52.36419 2.97096 37416 ft 446 kts 71°
2026-04-22 20:06 52.38140 3.06845 37417 ft 445 kts 71°
2026-04-22 20:07 52.39846 3.16583 37419 ft 445 kts 72°
2026-04-22 20:07 52.41517 3.26335 37416 ft 445 kts 72°
2026-04-22 20:08 52.43174 3.36039 37425 ft 445 kts 72°
2026-04-22 20:08 52.44832 3.45803 37423 ft 445 kts 72°
2026-04-22 20:09 52.46486 3.55594 37226 ft 444 kts 72°
2026-04-22 20:09 52.47307 3.60479 36701 ft 442 kts 72°
2026-04-22 20:09 52.48119 3.65320 36092 ft 439 kts 72°
2026-04-22 20:09 52.48926 3.70147 35485 ft 439 kts 72°
2026-04-22 20:10 52.49733 3.74986 34894 ft 439 kts 72°
2026-04-22 20:10 52.50538 3.79825 34291 ft 439 kts 72°
2026-04-22 20:10 52.51340 3.84661 33612 ft 440 kts 72°
2026-04-22 20:10 52.52143 3.89516 32947 ft 441 kts 72°
2026-04-22 20:11 52.52945 3.94384 32284 ft 442 kts 72°
2026-04-22 20:11 52.53738 3.99206 31658 ft 443 kts 72°
2026-04-22 20:11 52.54549 4.04157 31028 ft 444 kts 72°
2026-04-22 20:11 52.55350 4.09052 30303 ft 444 kts 72°
2026-04-22 20:12 52.56139 4.13900 29466 ft 445 kts 72°
2026-04-22 20:12 52.56940 4.18828 28648 ft 446 kts 72°
2026-04-22 20:12 52.57479 4.22158 28106 ft 447 kts 72°
2026-04-22 20:12 52.58539 4.28716 27077 ft 449 kts 72°
2026-04-22 20:13 52.59338 4.33672 26333 ft 449 kts 72°
2026-04-22 20:13 52.60137 4.38648 25608 ft 450 kts 72°
2026-04-22 20:13 52.60932 4.43614 24899 ft 446 kts 72°
2026-04-22 20:13 52.61718 4.48537 24213 ft 441 kts 72°
2026-04-22 20:14 52.62493 4.53405 23446 ft 436 kts 72°
2026-04-22 20:14 52.63255 4.58207 22665 ft 432 kts 72°
2026-04-22 20:14 52.64008 4.62966 21894 ft 427 kts 72°
2026-04-22 20:14 52.64744 4.67630 21161 ft 423 kts 72°
2026-04-22 20:15 52.65479 4.72298 20603 ft 419 kts 72°
2026-04-22 20:15 52.66210 4.76958 20410 ft 419 kts 73°
2026-04-22 20:15 52.66938 4.81604 20376 ft 419 kts 73°
2026-04-22 20:15 52.67664 4.86261 20400 ft 420 kts 73°
2026-04-22 20:16 52.68391 4.90929 20408 ft 420 kts 73°
2026-04-22 20:16 52.69116 4.95606 20844 ft 421 kts 73°
2026-04-22 20:16 52.69841 5.00291 21461 ft 422 kts 73°
2026-04-22 20:16 52.70567 5.04992 22041 ft 424 kts 72°
2026-04-22 20:17 52.71297 5.09728 22600 ft 426 kts 72°
2026-04-22 20:17 52.72027 5.14481 23169 ft 428 kts 72°
2026-04-22 20:17 52.72758 5.19251 23722 ft 430 kts 72°
2026-04-22 20:17 52.73512 5.24038 24135 ft 433 kts 69°
2026-04-22 20:18 52.74812 5.28465 24197 ft 426 kts 53°
2026-04-22 20:18 52.76577 5.32388 24297 ft 426 kts 51°
2026-04-22 20:18 52.78335 5.36230 24307 ft 425 kts 51°
2026-04-22 20:18 52.80130 5.40101 24317 ft 425 kts 50°
2026-04-22 20:19 52.81939 5.43969 24316 ft 424 kts 50°
2026-04-22 20:19 52.83747 5.47822 24323 ft 425 kts 50°
2026-04-22 20:19 52.85558 5.51682 24321 ft 425 kts 50°
2026-04-22 20:19 52.87367 5.55541 24324 ft 425 kts 50°
2026-04-22 20:20 52.89182 5.59417 24321 ft 426 kts 51°
2026-04-22 20:20 52.90999 5.63304 24327 ft 427 kts 51°
2026-04-22 20:20 52.92818 5.67200 24322 ft 427 kts 51°
2026-04-22 20:20 52.94635 5.71098 24327 ft 427 kts 51°
2026-04-22 20:21 52.96456 5.75011 24325 ft 427 kts 51°
2026-04-22 20:21 52.98270 5.78916 24325 ft 427 kts 51°
2026-04-22 20:21 53.00085 5.82826 24320 ft 427 kts 51°
2026-04-22 20:21 53.01902 5.86749 24329 ft 427 kts 51°
2026-04-22 20:22 53.03712 5.90664 24322 ft 427 kts 51°
2026-04-22 20:22 53.05523 5.94586 24326 ft 427 kts 51°
2026-04-22 20:22 53.07332 5.98508 24321 ft 427 kts 51°
2026-04-22 20:22 53.09138 6.02429 24323 ft 427 kts 51°
2026-04-22 20:23 53.10923 6.06314 24320 ft 428 kts 51°
2026-04-22 20:23 53.12730 6.10253 24332 ft 429 kts 51°
2026-04-22 20:23 53.14541 6.14207 24330 ft 429 kts 52°
2026-04-22 20:23 53.16353 6.18168 24328 ft 430 kts 52°
2026-04-22 20:24 53.18168 6.22140 24328 ft 430 kts 52°
2026-04-22 20:24 53.19983 6.26120 24325 ft 430 kts 52°
2026-04-22 20:24 53.21792 6.30093 24325 ft 430 kts 52°
2026-04-22 20:24 53.23601 6.34073 24325 ft 430 kts 52°
2026-04-22 20:25 53.25409 6.38057 24322 ft 430 kts 52°
2026-04-22 20:25 53.27216 6.42044 24320 ft 430 kts 52°
2026-04-22 20:25 53.29022 6.46036 24320 ft 430 kts 52°
2026-04-22 20:25 53.30828 6.50035 24321 ft 430 kts 52°
2026-04-22 20:26 53.32627 6.54023 24325 ft 430 kts 52°
2026-04-22 20:26 53.34442 6.58024 24326 ft 430 kts 50°
2026-04-22 20:26 53.36535 6.61508 24329 ft 430 kts 42°
2026-04-22 20:26 53.38737 6.64892 24324 ft 430 kts 43°
2026-04-22 20:27 53.40941 6.68295 24322 ft 430 kts 43°
2026-04-22 20:27 53.43140 6.71687 24335 ft 430 kts 43°
2026-04-22 20:27 53.45345 6.75093 24323 ft 432 kts 43°
2026-04-22 20:27 53.47559 6.78515 24322 ft 432 kts 43°
2026-04-22 20:28 53.49768 6.81930 24320 ft 433 kts 43°
2026-04-22 20:28 53.51986 6.85361 24317 ft 433 kts 43°
2026-04-22 20:28 53.54201 6.88793 24312 ft 433 kts 43°
2026-04-22 20:28 53.56400 6.92266 24309 ft 433 kts 45°
2026-04-22 20:29 53.58551 6.95813 24317 ft 433 kts 45°
2026-04-22 20:29 53.60711 6.99366 24318 ft 433 kts 45°
2026-04-22 20:29 53.62870 7.02914 24314 ft 433 kts 45°
2026-04-22 20:29 53.65027 7.06462 24441 ft 435 kts 45°
2026-04-22 20:30 53.67193 7.10033 24961 ft 435 kts 46°
2026-04-22 20:30 53.69361 7.13609 25383 ft 437 kts 46°
2026-04-22 20:30 53.71537 7.17205 25845 ft 438 kts 46°
2026-04-22 20:30 53.73687 7.20762 26332 ft 439 kts 46°
2026-04-22 20:31 53.75869 7.24379 26820 ft 439 kts 47°
2026-04-22 20:31 53.78058 7.28012 27284 ft 440 kts 48°
2026-04-22 20:31 53.80240 7.31638 27783 ft 440 kts 49°
2026-04-22 20:31 53.82424 7.35273 28280 ft 440 kts 50°
2026-04-22 20:32 53.84605 7.38912 28818 ft 439 kts 50°
2026-04-22 20:32 53.86776 7.42537 29330 ft 438 kts 50°
2026-04-22 20:32 53.88945 7.46165 29829 ft 438 kts 51°
2026-04-22 20:32 53.91113 7.49796 30366 ft 437 kts 51°
2026-04-22 20:33 53.93276 7.53424 30805 ft 437 kts 51°
2026-04-22 20:33 53.95441 7.57060 31251 ft 435 kts 51°
2026-04-22 20:33 53.97583 7.60666 31691 ft 434 kts 52°
2026-04-22 20:33 53.99723 7.64272 32159 ft 432 kts 52°
2026-04-22 20:34 54.01828 7.67825 32603 ft 430 kts 52°
2026-04-22 20:34 54.03946 7.71407 33122 ft 427 kts 52°
2026-04-22 20:34 54.06050 7.74968 33583 ft 426 kts 52°
2026-04-22 20:34 54.08140 7.78514 34034 ft 424 kts 52°
2026-04-22 20:35 54.10232 7.82066 34462 ft 423 kts 52°
2026-04-22 20:35 54.12311 7.85598 34808 ft 422 kts 52°
2026-04-22 20:35 54.14392 7.89139 35126 ft 422 kts 51°
2026-04-22 20:35 54.16445 7.92724 35429 ft 421 kts 53°
2026-04-22 20:36 54.18468 7.96350 35734 ft 422 kts 52°
2026-04-22 20:36 54.20493 7.99960 36041 ft 421 kts 52°
2026-04-22 20:36 54.21837 8.02360 36254 ft 421 kts 51°
2026-04-22 20:36 54.23863 8.05977 36521 ft 421 kts 51°
2026-04-22 20:37 54.25888 8.09599 36789 ft 421 kts 51°
2026-04-22 20:37 54.27912 8.13224 37056 ft 422 kts 51°
2026-04-22 20:37 54.29935 8.16853 37312 ft 421 kts 51°
2026-04-22 20:38 54.33993 8.24149 37381 ft 422 kts 51°
2026-04-22 20:38 54.38028 8.31427 37378 ft 421 kts 51°
2026-04-22 20:39 54.42068 8.38733 37371 ft 421 kts 51°
2026-04-22 20:39 54.46072 8.45998 37345 ft 421 kts 51°
2026-04-22 20:40 54.50092 8.53315 37364 ft 421 kts 51°
2026-04-22 20:40 54.54113 8.60655 37368 ft 421 kts 51°
2026-04-22 20:41 54.58123 8.67996 37360 ft 420 kts 51°
2026-04-22 20:41 54.62123 8.75344 37360 ft 420 kts 51°
2026-04-22 20:42 54.66119 8.82705 37355 ft 420 kts 51°
2026-04-22 20:42 54.70107 8.90076 37338 ft 419 kts 51°
2026-04-22 20:43 54.74064 8.97412 37342 ft 419 kts 51°
2026-04-22 20:43 54.78041 9.04806 37347 ft 419 kts 51°
2026-04-22 20:44 54.82018 9.12221 37348 ft 419 kts 51°
2026-04-22 20:44 54.85970 9.19670 37340 ft 418 kts 52°
2026-04-22 20:45 54.89817 9.27258 37339 ft 419 kts 52°
2026-04-22 20:45 54.93672 9.34849 37336 ft 418 kts 52°
2026-04-22 20:46 54.99431 9.46226 37325 ft 419 kts 52°
2026-04-22 20:46 55.03278 9.53855 37319 ft 419 kts 52°
2026-04-22 20:47 55.05190 9.57656 36952 ft 416 kts 52°
2026-04-22 20:47 55.07098 9.61454 36344 ft 413 kts 52°
2026-04-22 20:47 55.08978 9.65206 35961 ft 405 kts 53°
2026-04-22 20:47 55.10514 9.69218 35474 ft 394 kts 69°
2026-04-22 20:48 55.11454 9.73698 34891 ft 394 kts 73°
2026-04-22 20:48 55.12348 9.78253 34145 ft 397 kts 73°
2026-04-22 20:48 55.13213 9.82853 33247 ft 400 kts 73°
2026-04-22 20:48 55.14055 9.87441 32495 ft 401 kts 74°
2026-04-22 20:49 55.14892 9.92088 31783 ft 404 kts 74°
2026-04-22 20:49 55.15737 9.96815 31045 ft 410 kts 73°
2026-04-22 20:49 55.16588 10.01609 30195 ft 414 kts 73°
2026-04-22 20:49 55.17444 10.06448 29235 ft 418 kts 73°
2026-04-22 20:50 55.18309 10.11351 28580 ft 424 kts 73°
2026-04-22 20:50 55.19180 10.16302 27965 ft 427 kts 73°
2026-04-22 20:50 55.20054 10.21283 27327 ft 427 kts 73°
2026-04-22 20:50 55.20922 10.26243 26690 ft 425 kts 73°
2026-04-22 20:51 55.21783 10.31174 26066 ft 422 kts 73°
2026-04-22 20:51 55.22637 10.36084 25434 ft 420 kts 73°
2026-04-22 20:51 55.23483 10.40956 24810 ft 418 kts 73°
2026-04-22 20:51 55.24315 10.45765 24197 ft 415 kts 73°
2026-04-22 20:52 55.25150 10.50602 23525 ft 412 kts 73°
2026-04-22 20:52 55.25974 10.55391 22853 ft 409 kts 73°
2026-04-22 20:52 55.26792 10.60147 22239 ft 405 kts 73°
2026-04-22 20:52 55.27600 10.64849 21620 ft 401 kts 73°
2026-04-22 20:53 55.28405 10.69533 20973 ft 400 kts 72°
2026-04-22 20:53 55.29203 10.74179 20439 ft 396 kts 72°
2026-04-22 20:53 55.29994 10.78799 19861 ft 393 kts 72°
2026-04-22 20:53 55.30777 10.83384 19280 ft 391 kts 72°
2026-04-22 20:54 55.31554 10.87942 18735 ft 389 kts 72°
2026-04-22 20:54 55.32327 10.92497 18098 ft 388 kts 72°
2026-04-22 20:54 55.33090 10.97023 17417 ft 387 kts 72°
2026-04-22 20:54 55.33848 11.01567 16854 ft 385 kts 72°
2026-04-22 20:55 55.34596 11.06062 16335 ft 381 kts 72°
2026-04-22 20:55 55.35338 11.10531 15822 ft 379 kts 72°
2026-04-22 20:55 55.36073 11.14965 15298 ft 377 kts 71°
2026-04-22 20:55 55.36795 11.19331 14761 ft 376 kts 71°
2026-04-22 20:56 55.37529 11.23785 14251 ft 374 kts 71°
2026-04-22 20:56 55.38241 11.28113 13742 ft 371 kts 71°
2026-04-22 20:56 55.38949 11.32431 13481 ft 362 kts 71°
2026-04-22 20:56 55.39602 11.36421 13334 ft 351 kts 71°
2026-04-22 20:57 55.40264 11.40480 13153 ft 340 kts 71°
2026-04-22 20:57 55.40906 11.44423 12977 ft 330 kts 71°
2026-04-22 20:57 55.41529 11.48258 12813 ft 321 kts 71°
2026-04-22 20:57 55.42133 11.51981 12662 ft 311 kts 71°
2026-04-22 20:58 55.42718 11.55595 12511 ft 302 kts 70°
2026-04-22 20:58 55.43284 11.59097 12368 ft 293 kts 70°
2026-04-22 20:58 55.43858 11.62482 12221 ft 283 kts 64°
2026-04-22 20:58 55.44841 11.65422 12009 ft 280 kts 52°
2026-04-22 20:59 55.45948 11.68291 11830 ft 286 kts 52°
2026-04-22 20:59 55.47070 11.71202 11632 ft 287 kts 52°
2026-04-22 20:59 55.48193 11.74110 11408 ft 287 kts 52°
2026-04-22 20:59 55.49317 11.77016 11195 ft 285 kts 51°
2026-04-22 21:00 55.50431 11.79901 10958 ft 284 kts 51°
2026-04-22 21:00 55.51541 11.82778 10728 ft 283 kts 51°
2026-04-22 21:00 55.52645 11.85639 10500 ft 279 kts 51°
2026-04-22 21:00 55.53726 11.88462 10252 ft 275 kts 51°
2026-04-22 21:01 55.54791 11.91249 9978 ft 272 kts 51°
2026-04-22 21:01 55.55837 11.93987 9744 ft 267 kts 51°
2026-04-22 21:01 55.56860 11.96670 9548 ft 267 kts 51°
2026-04-22 21:01 55.57901 11.99402 9336 ft 267 kts 51°
2026-04-22 21:02 55.58936 12.02121 9120 ft 266 kts 51°
2026-04-22 21:02 55.59938 12.04757 8909 ft 265 kts 51°
2026-04-22 21:02 55.60994 12.07537 8695 ft 265 kts 51°
2026-04-22 21:02 55.62049 12.10202 8475 ft 261 kts 43°
2026-04-22 21:03 55.63368 12.12339 8263 ft 257 kts 35°
2026-04-22 21:03 55.64726 12.14383 8080 ft 256 kts 36°
2026-04-22 21:03 55.66081 12.16431 7885 ft 256 kts 36°
2026-04-22 21:03 55.67430 12.18479 7695 ft 255 kts 37°
2026-04-22 21:04 55.68518 12.21001 7431 ft 265 kts 62°
2026-04-22 21:04 55.68821 12.24223 7176 ft 277 kts 90°
2026-04-22 21:04 55.68208 12.27536 6944 ft 285 kts 120°
2026-04-22 21:04 55.66852 12.30043 6729 ft 289 kts 140°
2026-04-22 21:05 55.65302 12.32317 6492 ft 289 kts 138°
2026-04-22 21:05 55.63761 12.34624 6239 ft 289 kts 138°
2026-04-22 21:05 55.62149 12.36729 5981 ft 289 kts 154°
2026-04-22 21:05 55.60228 12.37539 5703 ft 284 kts 183°
2026-04-22 21:06 55.58334 12.36806 5357 ft 276 kts 210°
2026-04-22 21:06 55.56783 12.34929 5057 ft 268 kts 224°
2026-04-22 21:06 55.55353 12.32843 4844 ft 264 kts 225°
2026-04-22 21:06 55.53953 12.30761 4650 ft 260 kts 225°
2026-04-22 21:07 55.52585 12.28706 4435 ft 255 kts 226°
2026-04-22 21:07 55.51248 12.26686 4235 ft 250 kts 226°
2026-04-22 21:07 55.49941 12.24702 4038 ft 246 kts 226°
2026-04-22 21:07 55.48603 12.22883 3896 ft 243 kts 210°
2026-04-22 21:08 55.46965 12.22245 3772 ft 243 kts 179°
2026-04-22 21:08 55.45408 12.23060 3695 ft 233 kts 146°
2026-04-22 21:08 55.44336 12.25078 3634 ft 225 kts 114°
2026-04-22 21:08 55.43934 12.27711 3629 ft 223 kts 84°
2026-04-22 21:09 55.44274 12.30314 3648 ft 217 kts 57°
2026-04-22 21:09 55.44971 12.32670 3640 ft 219 kts 57°
2026-04-22 21:09 55.45458 12.35230 3516 ft 227 kts 82°
2026-04-22 21:09 55.45442 12.38018 3354 ft 226 kts 77°
2026-04-22 21:10 55.45968 12.40504 3141 ft 211 kts 46°
2026-04-22 21:10 55.47066 12.42084 3013 ft 203 kts 24°
2026-04-22 21:10 55.48266 12.43449 2963 ft 209 kts 32°
2026-04-22 21:10 55.49367 12.45103 2707 ft 203 kts 37°
2026-04-22 21:11 55.50350 12.46663 2481 ft 177 kts 36°
2026-04-22 21:11 55.51223 12.48015 2204 ft 157 kts 34°
2026-04-22 21:11 55.52003 12.49209 1989 ft 139 kts 34°
2026-04-22 21:11 55.52718 12.50307 1790 ft 136 kts 33°
2026-04-22 21:12 55.53427 12.51399 1592 ft 135 kts 33°
2026-04-22 21:12 55.54125 12.52474 1397 ft 135 kts 33°
2026-04-22 21:12 55.54829 12.53561 1209 ft 134 kts 33°
2026-04-22 21:12 55.55534 12.54650 1021 ft 134 kts 32°
2026-04-22 21:13 55.56238 12.55736 831 ft 135 kts 34°
2026-04-22 21:13 55.56951 12.56839 663 ft 137 kts 35°
2026-04-22 21:13 55.57667 12.57968 438 ft 138 kts 36°
2026-04-22 21:13 55.58393 12.59080 283 ft 138 kts 37°
2026-04-22 21:14 55.59114 12.60201 107 ft 138 kts 37°
2026-04-22 21:14 55.59800 12.61258 21 ft 121 kts 36°
2026-04-22 21:14 55.60263 12.61958 20 ft 54 kts 40°
2026-04-22 21:14 55.60465 12.62244 23 ft 23 kts 28°
2026-04-22 21:15 55.60514 12.62285 23 ft 2 kts 23°
2026-04-22 21:15 55.60598 12.62330 23 ft 21 kts 11°
2026-04-22 21:15 55.60776 12.62403 20 ft 33 kts 27°
2026-04-22 21:15 55.60946 12.62646 20 ft 33 kts 41°
2026-04-22 21:16 55.61142 12.62942 20 ft 32 kts 42°
2026-04-22 21:16 55.61313 12.63209 20 ft 36 kts 40°
2026-04-22 21:16 55.61503 12.63503 20 ft 31 kts 41°
2026-04-22 21:16 55.61654 12.63737 20 ft 30 kts 41°
2026-04-22 21:17 55.61786 12.63942 20 ft 21 kts 41°
2026-04-22 21:17 55.61866 12.64065 20 ft 14 kts 40°
2026-04-22 21:17 55.61974 12.64157 19 ft 22 kts 25°
2026-04-22 21:17 55.62131 12.64289 19 ft 23 kts 25°
2026-04-22 21:18 55.62263 12.64391 18 ft 18 kts 14°
2026-04-22 21:18 55.62375 12.64441 19 ft 13 kts 15°
2026-04-22 21:18 55.62432 12.64417 19 ft 10 kts 313°
2026-04-22 21:18 55.62491 12.64281 19 ft 18 kts 306°
2026-04-22 21:19 55.62504 12.64249 19 ft 0 kts 304°
2026-04-22 21:19 55.62511 12.64231 19 ft 5 kts 304°
2026-04-22 21:19 55.62558 12.64206 19 ft 9 kts 26°
2026-04-22 21:19 55.62603 12.64189 20 ft 6 kts 303°
2026-04-22 21:20 55.62633 12.64109 19 ft 2 kts 336°
2026-04-22 21:20 55.62670 12.64134 19 ft 9 kts 32°
2026-04-22 21:20 55.62694 12.64163 21 ft 0 kts 33°